This is the latest recevied weather packets stored in our database for station/object KC0MWM-2. If no packets are shown the sender has not sent any weather packets the latest 10 day(s).
| Time | Temp. | Humidity | Pressure | Rain* | Wind** | Luminosity | Snow |
|---|---|---|---|---|---|---|---|
| 1777197737 | 4.44° C | 98% | 1014 hPa | 0 mm | - | - | - |
| 1777197177 | 4.44° C | 98% | 1014.1 hPa | 0 mm | - | - | - |
| 1777193537 | 4.44° C | 98% | 1014 hPa | 0 mm | - | - | - |
| 1777189337 | 5° C | 98% | 1014.2 hPa | 0 mm | - | - | - |
| 1777188137 | 5° C | 98% | 1014.1 hPa | 0 mm | - | - | - |
| 1777187537 | 5° C | 98% | 1014.1 hPa | 0 mm | - | - | - |
| 1777183936 | 5° C | 98% | 1015.4 hPa | 0 mm | - | - | - |
| 1777179137 | 5° C | 98% | 1014.6 hPa | 0 mm | - | - | - |
| 1777174937 | 5° C | 98% | 1014.7 hPa | 0 mm | - | - | - |
| 1777173735 | 5.56° C | 98% | 1014.6 hPa | 0 mm | - | - | - |
| 1777173137 | 5.56° C | 98% | 1014.5 hPa | 0 mm | - | - | - |
| 1777172557 | 5.56° C | 98% | 1014.4 hPa | 0 mm | - | - | - |
| 1777171337 | 6.11° C | 98% | 1014.4 hPa | 0 mm | - | - | - |
| 1777167737 | 6.11° C | 98% | 1013.6 hPa | 0 mm | - | - | - |
| 1777166537 | 6.67° C | 98% | 1013.6 hPa | 0 mm | - | - | - |
| 1777164137 | 7.22° C | 98% | 1012.6 hPa | 0 mm | - | - | - |
| 1777159957 | 7.22° C | 98% | 1012.1 hPa | 0.25 mm | - | - | - |
| 1777158737 | 7.22° C | 98% | 1011.9 hPa | 1.27 mm | - | - | - |
| 1777157537 | 7.22° C | 98% | 1011.4 hPa | 1.78 mm | - | - | - |
| 1777156936 | 7.22° C | 98% | 1011.4 hPa | 2.03 mm | - | - | - |
| 1777156336 | 7.22° C | 98% | 1011.3 hPa | 3.3 mm | - | - | - |
| 1777154536 | 6.67° C | 98% | 1011.1 hPa | 4.06 mm | - | - | - |
| 1777153336 | 7.22° C | 98% | 1010.8 hPa | 4.32 mm | - | - | - |
| 1777150956 | 6.67° C | 97% | 1010.8 hPa | 1.27 mm | - | - | - |
| 1777149736 | 7.22° C | 97% | 1010.7 hPa | 1.02 mm | - | - | - |
* Rain latest hour (hover to see other rain measurements)
** Current wind speed in m/s (hover to see current wind gust speed)